[[{"header":{"parameterUnit":"m.s-1","parameterCategory":2,"la1":30.2991,"la2":30.254,"lo1":-89.0895,"lo2":-89.0444,"dy":0.0017,"dx":0.0017,"nx":28,"ny":28,"refTime":"2023-08-09T09:00:00:Z","depth":"0","parameterNumber":2,"parameterNumberName":"U-component_of_CURRENTS"},"data":[0,0,0,0,0,0,0,0,0,0,0,0,0,0,0,0,0,0,0,0,0,0,0,0,0,0,0,0,0,0,0,0,0,0,0,0,0,0,0,0,0,0,0,0,0,0,0,0,0,0,0,0,0,0,0,0,0,0,0.6051,0.6053,0,0.6203,0.6203,0.6204,0.6059,0.6055,0.6051,0.6047,0.607,0.6074,0.6079,0,0,0,0,0,0,0,0,0,0,0,0,0,0.5844,0.5846,0.605,0.6054,0.6057,0.6203,0.6203,0.6204,0.606,0.6055,0.605,0.6045,0.6068,0.6074,0.6079,0,0,0,0,0,0,0,0,0,0,0,0,0,0.5944,0.5846,0.605,0.6014,0.6014,0.6203,0.6203,0.6204,0.6061,0.6055,0.6048,0.6042,0.6066,0.6073,0.608,0.6254,0,0,0.6102,0.6105,0,0,0,0,0,0,0,0,0.5938,0.5949,0.6016,0.6017,0.6017,0.6119,0.614,0.622,0.6063,0.6027,0.6047,0.6039,0.609,0.6094,0.6117,0.6255,0.6256,0.6102,0.6107,0.611,0.6112,0,0,0,0,0,0,0,0.5931,0.5943,0.6095,0.6021,0.6021,0.6064,0.6067,0.6155,0.6078,0.603,0.6023,0.6067,0.6085,0.6111,0.6116,0.6257,0.6102,0.6108,0.6113,0.6115,0.6441,0.6445,0,0,0,0,0,0,0.594,0.5936,0.609,0.6101,0.5978,0.6073,0.6076,0.608,0.608,0.608,0.6073,0.606,0.6102,0.6108,0.6117,0.6204,0.6109,0.6116,0.612,0.6437,0.6442,0.6447,0,0,0,0,0,0,0.5934,0.5951,0.6084,0.6036,0.6058,0.6083,0.609,0.6087,0.6109,0.6117,0.6109,0.6098,0.6097,0.6107,0.6187,0.6208,0.6119,0.6126,0.6431,0.6438,0.6445,0.6456,0,0,0,0,0,0,0.5927,0.5947,0.598,0.6036,0.6062,0.6213,0.6098,0.6095,0.6154,0.6138,0.6139,0.6133,0.6093,0.6177,0.6194,0.6216,0.6131,0.6426,0.6435,0.6442,0.645,0.6463,0.6473,0,0,0,0,0,0.5918,0.5995,0.5979,0.6001,0.6095,0.6219,0.6236,0.6222,0.6162,0.6207,0.6184,0.6133,0.624,0.6188,0.6207,0.623,0.6422,0.6432,0.6442,0.6445,0.646,0.6473,0,0,0,0,0,0,0.5952,0.5992,0.5973,0.6063,0.6142,0.6199,0.6266,0.6258,0.6283,0.6249,0.6212,0.6211,0.6286,0.6298,0.624,0.6357,0.6318,0.6333,0.6315,0.6329,0.634,0.6349,0.6137,0,0,0,0,0,0.5976,0.601,0.6082,0.6159,0.6199,0.6237,0.6294,0.6284,0.6318,0.6319,0.6306,0.6313,0.6358,0.6367,0.6415,0.6507,0.6487,0.6536,0.6547,0.6556,0.6583,0.6614,0.6628,0.648,0.648,0.6479,0,0,0.6013,0.6047,0.6067,0.6167,0.6212,0.6268,0.6249,0.6344,0.6361,0.633,0.6345,0.6375,0.6402,0.6464,0.6498,0.646,0.6576,0.6568,0.6574,0.6598,0.6625,0.6639,0.6651,0.6487,0.6485,0.6484,0,0,0.6091,0.6131,0.6168,0.6228,0.632,0.6345,0.6378,0.6436,0.6431,0.6502,0.6459,0.6523,0.6574,0.6587,0.6603,0.6743,0.6652,0.6739,0.6778,0.6807,0.6817,0.6827,0.6742,0.6744,0.6721,0.6721,0.6721,0,0.6134,0.6167,0.622,0.627,0.6313,0.6368,0.6413,0.6457,0.652,0.6538,0.6501,0.6604,0.6635,0.671,0.6734,0.6764,0.6716,0.6701,0.6814,0.6823,0.6833,0.6744,0.6746,0.6723,0.6723,0.6723,0.6723,0,0.6208,0.6242,0.6291,0.6318,0.6389,0.6462,0.6512,0.656,0.656,0.6584,0.6673,0.6726,0.6767,0.68,0.6804,0.6893,0.6812,0.6829,0.6755,0.6847,0.6748,0.675,0.6726,0.6725,0.6724,0.6724,0,0,0.6261,0.6315,0.6324,0.6313,0.6406,0.6455,0.6522,0.6597,0.6603,0.6686,0.6706,0.6837,0.6855,0.6885,0.6906,0.6952,0.6965,0.691,0.6911,0.6782,0.6922,0.6566,0.6531,0.6972,0.6974,0.6976,0.6795,0,0.6289,0.6329,0.6367,0.6401,0.6422,0.648,0.6524,0.6596,0.6638,0.6676,0.6783,0.6822,0.6883,0.6883,0.6957,0.6987,0.6983,0.7007,0.6894,0.689,0.6527,0.6529,0.6234,0.6024,0.6796,0.6796,0.6796,0,0.6327,0.6339,0.6356,0.6374,0.6391,0.6413,0.6458,0.651,0.6612,0.6646,0.6737,0.6787,0.6905,0.6922,0.7007,0.7001,0.697,0.698,0.6972,0.6648,0.6539,0.6081,0.5997,0.5934,0.6798,0.6798,0.6798,0,0.6279,0.6327,0.6312,0.6325,0.6371,0.6376,0.6403,0.6491,0.6512,0.6611,0.6618,0.6767,0.6772,0.6868,0.6884,0.6939,0.6904,0.6974,0.6611,0.6581,0.6317,0.6258,0.6129,0.7003,0.7003,0.7004,0.7004,0,0.6275,0.6264,0.6269,0.6257,0.6227,0.6299,0.6282,0.6342,0.6416,0.6409,0.6576,0.6551,0.6759,0.6756,0.6833,0.6665,0.6844,0.6599,0.6523,0.6302,0.6246,0.617,0.6191,0.6997,0.6998,0.7,0.7001,0,0.6214,0.6229,0.6195,0.6203,0.6191,0.6163,0.6167,0.6149,0.6256,0.6243,0.6266,0.6368,0.633,0.6448,0.6509,0.6478,0.6247,0.6326,0.5979,0.5864,0.5459,0.549,0.5091,0.4979,0.5918,0.5908,0.59,0,0.6172,0.6149,0.6108,0.6043,0.6025,0.599,0.5945,0.6043,0.6009,0.6084,0.6033,0.6017,0.591,0.5824,0.5785,0.5732,0.5788,0.5398,0.549,0.535,0.5338,0.5265,0.5204,0.5133,0.5119,0.5108,0.5099,0,0.607,0.6053,0.6016,0.5851,0.5768,0.5682,0.5622,0.5586,0.567,0.5643,0.5501,0.5434,0.5322,0.5073,0.4989,0.4983,0.5143,0.5151,0.5161,0.4808,0.4577,0.4458,0.5288,0.4998,0.5008,0.5015,0.5021,0.5025,0.5947,0.5862,0.5745,0.5547,0.5485,0.5275,0.5087,0.5057,0.4919,0.4762,0.4913,0.4662,0.4597,0.44,0.4357,0.4138,0.4313,0.4102,0.4172,0.4128,0.3946,0.4453,0.3986,0.399,0.3993,0.3997,0.3999,0,0.5599,0.5501,0.5394,0.5109,0.4894,0.4938,0.4756,0.4528,0.4217,0.4206,0.4023,0.3801,0.3563,0.359,0.3435,0.3283,0.3277,0.3236,0.3212,0.3231,0.3806,0.3703,0.2964,0.2964,0.2964,0.2964,0.2964,0.2964,0.5392,0.5123,0.5011,0.4506,0.434,0.3935,0.3751,0.3534,0.3439,0.31,0.292,0.2939,0.311,0.304,0.2891,0.2819,0.2798,0.2495,0.2683,0.3261,0.3356,0.3445,0.3358,0.2558,0.2557,0.1984,0.198,0.1977]},{"header":{"parameterUnit":"m.s-1","parameterCategory":2,"la1":30.2991,"la2":30.254,"lo1":-89.0895,"lo2":-89.0444,"dy":0.0017,"dx":0.0017,"nx":28,"ny":28,"refTime":"2023-08-09T09:00:00:Z","depth":"0","parameterNumber":3,"parameterNumberName":"V-component_of_CURRENTS"},"data":[0,0,0,0,0,0,0,0,0,0,0,0,0,0,0,0,0,0,0,0,0,0,0,0,0,0,0,0,0,0,0,0,0,0,0,0,0,0,0,0,0,0,0,0,0,0,0,0,0,0,0,0,0,0,0,0,0,0,0.0383,0.0385,0,0.0542,0.0544,0.0546,0.0544,0.0542,0.054,0.0537,0.0623,0.0627,0.0631,0,0,0,0,0,0,0,0,0,0,0,0,0,0.0226,0.0228,0.0383,0.0385,0.0387,0.0542,0.0544,0.0546,0.0544,0.0542,0.0539,0.0536,0.0621,0.0626,0.0632,0,0,0,0,0,0,0,0,0,0,0,0,0,0.0331,0.0229,0.0383,0.0404,0.0407,0.0541,0.0544,0.0547,0.0545,0.0542,0.0538,0.0535,0.062,0.0626,0.0632,0.0738,0,0,0.0652,0.0655,0,0,0,0,0,0,0,0,0.0325,0.0337,0.0399,0.0403,0.0407,0.0519,0.052,0.0607,0.0546,0.0494,0.0537,0.0534,0.0583,0.0592,0.0632,0.0742,0.0746,0.0653,0.0657,0.0659,0.0661,0,0,0,0,0,0,0,0.0317,0.0331,0.0447,0.0401,0.0406,0.0456,0.0466,0.0538,0.0554,0.0498,0.0498,0.0515,0.0584,0.0626,0.0634,0.0747,0.0652,0.0658,0.0662,0.0665,0.0923,0.0926,0,0,0,0,0,0,0.0292,0.0324,0.0442,0.0452,0.0356,0.0461,0.0472,0.0487,0.0555,0.0563,0.0518,0.0514,0.0616,0.0626,0.0637,0.0771,0.0659,0.0665,0.0669,0.092,0.0924,0.0927,0,0,0,0,0,0,0.0288,0.0301,0.0436,0.039,0.0411,0.0466,0.0484,0.0492,0.0532,0.0571,0.0576,0.0547,0.0614,0.0627,0.0706,0.0773,0.0668,0.0674,0.0916,0.0921,0.0925,0.1037,0,0,0,0,0,0,0.0283,0.0299,0.031,0.0389,0.0412,0.0538,0.0487,0.0497,0.0547,0.0544,0.0599,0.0604,0.0613,0.0697,0.0713,0.078,0.0679,0.0913,0.0919,0.0924,0.1029,0.1044,0.1057,0,0,0,0,0,0.0277,0.0319,0.0309,0.0324,0.0422,0.0542,0.0561,0.0588,0.0551,0.0604,0.0619,0.0602,0.0742,0.0706,0.0723,0.0794,0.091,0.0917,0.0923,0.1023,0.1041,0.1057,0,0,0,0,0,0,0.0278,0.0325,0.0315,0.0372,0.0454,0.0541,0.059,0.0602,0.0661,0.0646,0.0654,0.0664,0.076,0.0764,0.0722,0.0882,0.082,0.0831,0.0889,0.0907,0.0921,0.0936,0.0685,0,0,0,0,0,0.0277,0.0307,0.0376,0.0429,0.0463,0.0524,0.0572,0.06,0.0658,0.068,0.0717,0.0751,0.081,0.0841,0.0899,0.0997,0.0952,0.1049,0.1063,0.1075,0.1099,0.1083,0.1097,0.0949,0.0949,0.0949,0,0,0.0296,0.0324,0.0344,0.043,0.0484,0.0578,0.0546,0.0639,0.0718,0.0683,0.0794,0.0815,0.0848,0.0953,0.0995,0.0959,0.1089,0.1083,0.1093,0.1112,0.1091,0.1105,0.1118,0.0953,0.0952,0.0952,0,0,0.0367,0.0372,0.0424,0.0493,0.0579,0.063,0.0656,0.0753,0.079,0.0903,0.0887,0.0951,0.1045,0.109,0.1117,0.125,0.1168,0.1252,0.1339,0.1323,0.1334,0.1344,0.1274,0.1276,0.1253,0.1254,0.1254,0,0.0379,0.0461,0.0471,0.0553,0.0624,0.0652,0.076,0.0822,0.0936,0.0983,0.0948,0.1095,0.1121,0.1243,0.1278,0.1288,0.1225,0.1269,0.1339,0.1347,0.1355,0.1281,0.1283,0.126,0.1259,0.1259,0.1258,0,0.0501,0.057,0.0621,0.0714,0.0794,0.0903,0.0978,0.1056,0.1085,0.114,0.1261,0.1298,0.1374,0.1395,0.1379,0.1467,0.1385,0.1357,0.1289,0.1376,0.1293,0.1292,0.1269,0.1267,0.1265,0.1263,0,0,0.0531,0.0671,0.069,0.0766,0.0891,0.098,0.1102,0.1238,0.1312,0.1392,0.1495,0.1594,0.1578,0.1608,0.1597,0.159,0.1583,0.1493,0.1489,0.1411,0.1486,0.1361,0.1346,0.154,0.1542,0.1543,0.1392,0,0.0633,0.0797,0.0846,0.1034,0.114,0.1199,0.1315,0.1424,0.149,0.1592,0.1624,0.171,0.1666,0.1687,0.1687,0.1623,0.1591,0.1624,0.1425,0.1419,0.1288,0.1347,0.131,0.1167,0.1391,0.1391,0.1391,0,0.0758,0.0849,0.1029,0.12,0.1248,0.1349,0.1518,0.1625,0.1742,0.1785,0.1856,0.1855,0.1905,0.1824,0.1758,0.1763,0.164,0.1564,0.1555,0.1407,0.1295,0.1125,0.1156,0.1077,0.1389,0.1389,0.1389,0,0.0815,0.0995,0.1136,0.1201,0.138,0.1461,0.1551,0.1683,0.1773,0.1886,0.1931,0.1985,0.1985,0.1893,0.1738,0.1734,0.1603,0.1578,0.1348,0.1334,0.1254,0.1232,0.1183,0.1507,0.1508,0.1508,0.1508,0,0.0942,0.1066,0.1163,0.1255,0.1411,0.1508,0.1667,0.1761,0.1879,0.1976,0.201,0.206,0.1991,0.1906,0.1766,0.1545,0.1616,0.1375,0.1305,0.1287,0.1271,0.1156,0.1097,0.1502,0.1503,0.1505,0.1506,0,0.1037,0.1102,0.127,0.1416,0.1454,0.1567,0.1716,0.1821,0.191,0.2027,0.2054,0.2099,0.1987,0.1866,0.1696,0.1551,0.1284,0.1261,0.1217,0.1146,0.0874,0.0822,0.0644,0.0611,0.1012,0.1009,0.1006,0,0.1114,0.1204,0.1349,0.1417,0.1488,0.1624,0.1714,0.1834,0.1921,0.2036,0.2083,0.2029,0.1997,0.1708,0.1459,0.1188,0.1112,0.0949,0.0968,0.0864,0.0756,0.0729,0.0716,0.0887,0.0883,0.088,0.0877,0,0.1246,0.1279,0.1385,0.1489,0.1585,0.1708,0.1822,0.1884,0.2003,0.2077,0.2122,0.2103,0.1845,0.1585,0.1217,0.1029,0.088,0.0871,0.0805,0.0692,0.0622,0.0554,0.0944,0.0849,0.0852,0.0854,0.0856,0.0857,0.1305,0.1376,0.1453,0.1555,0.1659,0.1752,0.1813,0.1918,0.2015,0.2097,0.2105,0.2074,0.1755,0.1269,0.1009,0.0573,0.0619,0.0466,0.0416,0.0403,0.0373,0.0667,0.0471,0.0471,0.0472,0.0472,0.0473,0,0.1332,0.1392,0.1504,0.1593,0.1663,0.1724,0.185,0.1894,0.1955,0.2067,0.2088,0.1919,0.1482,0.1097,0.0506,0.021,0.0172,0.0075,0.0086,0.0102,0.0399,0.0401,0.0131,0.0131,0.0131,0.0132,0.0132,0.0132,0.1343,0.1406,0.1443,0.1524,0.1589,0.1647,0.1694,0.1791,0.1887,0.1959,0.1964,0.1988,0.1756,0.0716,0.0065,-0.0084,-0.0172,-0.0292,-0.0299,-0.0044,-0.0007,0.0028,0.0021,-0.0323,-0.0324,-0.0529,-0.0532,-0.0534]}],[{"header":{"parameterUnit":"m.s-1","parameterCategory":2,"la1":30.2991,"la2":30.254,"lo1":-89.0895,"lo2":-89.0444,"dy":0.0017,"dx":0.0017,"nx":28,"ny":28,"refTime":"2023-08-09T09:00:00:Z","depth":"2","parameterNumber":2,"parameterNumberName":"U-component_of_CURRENTS"},"data":[0,0,0,0,0,0,0,0,0,0,0,0,0,0,0,0,0,0,0,0,0,0,0,0,0,0,0,0,0,0,0,0,0,0,0,0,0,0,0,0,0,0,0,0,0,0,0,0,0,0,0,0,0,0,0,0,0,0,0.4367,0.4368,0,0.4465,0.4466,0.4466,0.4417,0.4415,0.4413,0.4411,0.4757,0.4768,0.4779,0,0,0,0,0,0,0,0,0,0,0,0,0,0.4291,0.4292,0.4367,0.4368,0.437,0.4465,0.4466,0.4466,0.4417,0.4415,0.4412,0.441,0.4753,0.4766,0.478,0,0,0,0,0,0,0,0,0,0,0,0,0,0.4345,0.4292,0.4366,0.4361,0.4361,0.4465,0.4466,0.4467,0.4418,0.4414,0.4411,0.4408,0.4749,0.4765,0.4781,0.4948,0,0,0.4833,0.484,0,0,0,0,0,0,0,0,0.4342,0.4347,0.436,0.4361,0.4362,0.443,0.4566,0.4642,0.4418,0.4391,0.441,0.4407,0.4677,0.4699,0.4713,0.4964,0.4979,0.4834,0.4844,0.4852,0.4856,0,0,0,0,0,0,0,0.4338,0.4344,0.44,0.4362,0.4364,0.4407,0.4409,0.4579,0.4551,0.4393,0.4391,0.4411,0.4677,0.4697,0.4722,0.4984,0.4834,0.4849,0.4859,0.4865,0.5377,0.538,0,0,0,0,0,0,0.4332,0.4339,0.4397,0.4404,0.435,0.441,0.4413,0.4407,0.4543,0.456,0.4414,0.4409,0.467,0.4702,0.4734,0.4934,0.4851,0.4867,0.4877,0.5373,0.5377,0.5381,0,0,0,0,0,0,0.4329,0.4335,0.4393,0.438,0.439,0.4414,0.4409,0.4411,0.4482,0.4557,0.4577,0.4489,0.4668,0.4711,0.4875,0.4948,0.4875,0.489,0.5369,0.5374,0.5379,0.5341,0,0,0,0,0,0,0.4326,0.4333,0.438,0.4378,0.4391,0.444,0.4413,0.4415,0.4499,0.4494,0.4631,0.4654,0.4669,0.485,0.4892,0.497,0.4903,0.5364,0.5371,0.5378,0.5338,0.5344,0.535,0,0,0,0,0,0.4323,0.433,0.4381,0.4392,0.4436,0.4441,0.4451,0.4456,0.4507,0.4517,0.4608,0.4652,0.4921,0.4867,0.4915,0.4999,0.5361,0.5369,0.5377,0.5335,0.5343,0.535,0,0,0,0,0,0,0.4298,0.4328,0.4381,0.4398,0.4437,0.4434,0.4463,0.4518,0.4604,0.4635,0.4713,0.4743,0.4904,0.4983,0.4921,0.5166,0.5148,0.5166,0.51,0.5109,0.5115,0.5125,0.4917,0,0,0,0,0,0.4334,0.4366,0.4395,0.4428,0.4441,0.4498,0.4534,0.4551,0.4608,0.4643,0.4746,0.4869,0.4975,0.5061,0.5158,0.5338,0.5345,0.5422,0.5428,0.5432,0.5476,0.5599,0.5619,0.5407,0.5407,0.5407,0,0,0.4346,0.4369,0.4396,0.4434,0.4465,0.4512,0.4506,0.4555,0.4624,0.4686,0.4832,0.4911,0.5027,0.5153,0.5239,0.5234,0.5458,0.5443,0.5444,0.5487,0.561,0.563,0.5648,0.5413,0.5412,0.5411,0,0,0.4352,0.4394,0.4426,0.4473,0.4543,0.4561,0.4602,0.4659,0.4696,0.4846,0.489,0.5016,0.5213,0.5269,0.5335,0.5475,0.5479,0.5521,0.5581,0.5698,0.5716,0.5733,0.558,0.5584,0.5533,0.5532,0.5532,0,0.4374,0.4441,0.4439,0.4491,0.4556,0.4599,0.4668,0.4709,0.483,0.4881,0.4886,0.5166,0.5262,0.5423,0.5436,0.5491,0.5473,0.5526,0.5702,0.572,0.5738,0.558,0.5584,0.5532,0.5532,0.5532,0.5532,0,0.4403,0.4508,0.4518,0.4614,0.4654,0.4724,0.4769,0.4839,0.4922,0.4975,0.5148,0.5258,0.5424,0.5465,0.55,0.5684,0.5585,0.5676,0.5666,0.5756,0.5581,0.5586,0.553,0.5531,0.5531,0.5531,0,0,0.4313,0.4514,0.4529,0.4643,0.4753,0.477,0.4865,0.4945,0.5022,0.5141,0.5261,0.5437,0.5507,0.5592,0.5666,0.577,0.5804,0.5786,0.5792,0.5597,0.5873,0.5532,0.5503,0.5941,0.5946,0.5951,0.5628,0,0.4366,0.4537,0.4593,0.4764,0.487,0.4926,0.4996,0.5071,0.5139,0.5245,0.5362,0.5513,0.5551,0.5655,0.5766,0.5808,0.5852,0.5871,0.5852,0.5846,0.5511,0.5515,0.5194,0.4866,0.5633,0.5634,0.5635,0,0.4391,0.452,0.4719,0.4909,0.4937,0.5021,0.5131,0.5208,0.5311,0.5366,0.5514,0.5598,0.5741,0.5811,0.5892,0.5901,0.5916,0.5922,0.5912,0.5643,0.5526,0.4947,0.4846,0.5644,0.5643,0.5642,0.5642,0,0.4384,0.4596,0.4781,0.486,0.5047,0.5113,0.5184,0.527,0.5304,0.5484,0.552,0.5691,0.5759,0.5877,0.5824,0.5913,0.5829,0.5953,0.5622,0.5585,0.5336,0.5271,0.6084,0.6084,0.6085,0.6086,0.6087,0,0.4457,0.4608,0.4812,0.4924,0.505,0.5165,0.5263,0.5336,0.5434,0.5414,0.5622,0.5612,0.5816,0.5758,0.5791,0.5589,0.5788,0.5602,0.5535,0.5285,0.5223,0.5989,0.5982,0.6074,0.6076,0.6079,0.6081,0,0.4501,0.4658,0.4843,0.5035,0.5084,0.5175,0.527,0.5267,0.5423,0.5411,0.5473,0.5539,0.5453,0.5479,0.5529,0.5446,0.5375,0.5284,0.481,0.4697,0.5043,0.5039,0.4907,0.4894,0.4882,0.4873,0.4865,0,0.4588,0.4706,0.4875,0.4883,0.4989,0.5114,0.5102,0.5256,0.522,0.5272,0.5201,0.5199,0.5023,0.4839,0.4796,0.4661,0.4988,0.4277,0.4482,0.5001,0.495,0.4964,0.4975,0.4036,0.4022,0.401,0.4001,0,0.4709,0.4748,0.4851,0.4784,0.4798,0.4805,0.4837,0.4799,0.4862,0.4828,0.4628,0.4527,0.4408,0.4098,0.3979,0.3926,0.428,0.4032,0.4766,0.4391,0.4159,0.4115,0.416,0.3898,0.3908,0.3916,0.3921,0.3925,0.4734,0.4697,0.4664,0.4563,0.4564,0.4365,0.4257,0.4217,0.4068,0.3891,0.3989,0.3731,0.3764,0.3396,0.324,0.321,0.3573,0.3515,0.3562,0.3619,0.3585,0.3349,0.291,0.2914,0.2918,0.2922,0.2925,0,0.4463,0.4363,0.4358,0.4145,0.3966,0.406,0.3909,0.3702,0.3369,0.3332,0.3161,0.2803,0.259,0.2695,0.248,0.2443,0.2572,0.2381,0.2584,0.2683,0.2772,0.271,0.1795,0.1791,0.1788,0.1785,0,0,0.4308,0.4055,0.3953,0.3532,0.3421,0.3099,0.2948,0.2734,0.2661,0.2331,0.2227,0.2391,0.2521,0.2099,0.2067,0.1887,0.2281,0.1813,0.2719,0.3051,0.3137,0.3413,0.3422,0,0,0,0,0]},{"header":{"parameterUnit":"m.s-1","parameterCategory":2,"la1":30.2991,"la2":30.254,"lo1":-89.0895,"lo2":-89.0444,"dy":0.0017,"dx":0.0017,"nx":28,"ny":28,"refTime":"2023-08-09T09:00:00:Z","depth":"2","parameterNumber":3,"parameterNumberName":"V-component_of_CURRENTS"},"data":[0,0,0,0,0,0,0,0,0,0,0,0,0,0,0,0,0,0,0,0,0,0,0,0,0,0,0,0,0,0,0,0,0,0,0,0,0,0,0,0,0,0,0,0,0,0,0,0,0,0,0,0,0,0,0,0,0,0,-0.0259,-0.026,0,-0.025,-0.025,-0.0249,-0.0229,-0.0229,-0.0229,-0.0229,-0.0088,-0.0085,-0.0081,0,0,0,0,0,0,0,0,0,0,0,0,0,-0.0307,-0.0306,-0.0259,-0.026,-0.026,-0.025,-0.025,-0.0249,-0.0229,-0.0229,-0.0229,-0.0228,-0.009,-0.0085,-0.0081,0,0,0,0,0,0,0,0,0,0,0,0,0,-0.0288,-0.0305,-0.0259,-0.0251,-0.025,-0.025,-0.0249,-0.0249,-0.0229,-0.0229,-0.0229,-0.0228,-0.0091,-0.0086,-0.008,-0.0051,0,0,-0.0064,-0.0062,0,0,0,0,0,0,0,0,-0.0289,-0.0286,-0.0252,-0.0251,-0.0251,-0.0243,-0.0215,-0.0177,-0.0229,-0.0234,-0.0229,-0.0228,-0.013,-0.0121,-0.0118,-0.0045,-0.0039,-0.0063,-0.006,-0.0058,-0.0056,0,0,0,0,0,0,0,-0.029,-0.0286,-0.0253,-0.0252,-0.0251,-0.0264,-0.026,-0.0209,-0.0179,-0.0233,-0.0233,-0.0236,-0.0128,-0.0123,-0.0114,-0.0037,-0.0064,-0.0059,-0.0056,-0.0053,0.0115,0.0116,0,0,0,0,0,0,-0.0295,-0.0287,-0.0253,-0.0253,-0.0273,-0.0263,-0.0259,-0.0243,-0.0182,-0.0174,-0.0237,-0.0235,-0.0133,-0.012,-0.0109,0.0017,-0.0058,-0.0053,-0.005,0.0114,0.0115,0.0116,0,0,0,0,0,0,-0.0295,-0.0291,-0.0253,-0.0274,-0.027,-0.0262,-0.0245,-0.0243,-0.0229,-0.0186,-0.0175,-0.0224,-0.0132,-0.0116,-0.0073,0.0019,-0.005,-0.0046,0.0112,0.0114,0.0116,0.0213,0,0,0,0,0,0,-0.0296,-0.0291,-0.0289,-0.0273,-0.0269,-0.0225,-0.0246,-0.0243,-0.0234,-0.0232,-0.0172,-0.016,-0.0131,-0.0081,-0.0067,0.0026,-0.0041,0.0111,0.0113,0.0115,0.0209,0.0218,0.0227,0,0,0,0,0,-0.0298,-0.0286,-0.0288,-0.0285,-0.0263,-0.0224,-0.0221,-0.0215,-0.0234,-0.0206,-0.0198,-0.0161,-0.0055,-0.0077,-0.0061,0.0037,0.0109,0.0112,0.0115,0.0205,0.0216,0.0227,0,0,0,0,0,0,-0.0292,-0.0283,-0.0285,-0.0267,-0.0238,-0.022,-0.0216,-0.0211,-0.0187,-0.0187,-0.016,-0.0146,-0.0061,-0.005,-0.0075,0.0085,0.004,0.0046,0.0103,0.0115,0.0124,0.0147,-0.0037,0,0,0,0,0,-0.0295,-0.0288,-0.0266,-0.0248,-0.0242,-0.0231,-0.0223,-0.0202,-0.0182,-0.0171,-0.0138,-0.0099,-0.0038,0.0001,0.0049,0.0126,0.0117,0.0198,0.0208,0.0216,0.0242,0.0319,0.0339,0.0126,0.0125,0.0125,0,0,-0.0276,-0.0284,-0.027,-0.0249,-0.024,-0.0178,-0.0223,-0.0189,-0.0125,-0.0156,-0.008,-0.0065,-0.0017,0.0074,0.0116,0.0099,0.025,0.0219,0.0226,0.0249,0.0325,0.0346,0.0365,0.0127,0.0127,0.0127,0,0,-0.023,-0.0254,-0.0222,-0.0192,-0.0171,-0.0153,-0.0138,-0.0107,-0.0088,-0.0028,-0.0023,0.0032,0.0103,0.0172,0.0212,0.0295,0.0292,0.0312,0.0396,0.0471,0.049,0.0507,0.0436,0.0446,0.0323,0.0324,0.0324,0,-0.0214,-0.0158,-0.0201,-0.015,-0.0107,-0.0131,-0.0042,-0.0025,0.0024,0.0059,0.0014,0.014,0.0168,0.0315,0.0331,0.033,0.0307,0.0357,0.0487,0.0504,0.052,0.0444,0.0454,0.0329,0.0328,0.0328,0.0327,0,-0.0121,-0.0069,-0.005,0.0012,0.0048,0.0117,0.0144,0.0183,0.0181,0.021,0.0312,0.0321,0.0415,0.0426,0.0401,0.0548,0.0466,0.0487,0.0467,0.0549,0.046,0.0469,0.0336,0.0334,0.0333,0.0331,0,0,-0.0082,0.0005,0.0016,0.0095,0.015,0.0207,0.0288,0.0379,0.0458,0.0467,0.059,0.0637,0.0627,0.0668,0.0663,0.0696,0.0742,0.0632,0.0633,0.057,0.0798,0.0667,0.0662,0.0791,0.0795,0.0798,0.0658,0,0.002,0.0158,0.0171,0.0342,0.0433,0.0446,0.0534,0.0603,0.0631,0.0731,0.0738,0.0841,0.0729,0.0787,0.0809,0.0783,0.0784,0.077,0.072,0.0716,0.0604,0.0679,0.0667,0.0539,0.0666,0.0668,0.0669,0,0.0128,0.0207,0.0383,0.0539,0.0576,0.0671,0.0813,0.0897,0.0991,0.1013,0.1085,0.1081,0.1142,0.1045,0.1015,0.1007,0.0914,0.0847,0.0843,0.071,0.0609,0.0496,0.055,0.0683,0.0682,0.0681,0.068,0,0.0211,0.0368,0.0516,0.0573,0.0727,0.0812,0.0897,0.0993,0.1078,0.1215,0.1278,0.1329,0.1368,0.1301,0.1101,0.1093,0.1016,0.1012,0.0786,0.0768,0.0746,0.0722,0.1016,0.1016,0.1016,0.1017,0.1017,0,0.0341,0.0471,0.0571,0.0671,0.0853,0.0918,0.1107,0.1185,0.1312,0.1427,0.1442,0.1508,0.144,0.136,0.1186,0.0971,0.1086,0.0809,0.0767,0.0763,0.0743,0.088,0.0866,0.1011,0.1012,0.1014,0.1014,0,0.0461,0.0518,0.0702,0.0858,0.0912,0.1051,0.123,0.1359,0.1443,0.1602,0.1655,0.1669,0.1554,0.1383,0.1246,0.1068,0.0895,0.0785,0.0693,0.0645,0.056,0.0553,0.057,0.0565,0.0561,0.0557,0.0555,0,0.0562,0.0661,0.0828,0.093,0.1018,0.1197,0.132,0.1434,0.1543,0.1657,0.1734,0.1689,0.1612,0.1305,0.1047,0.074,0.0758,0.0524,0.0551,0.0579,0.0536,0.0535,0.0533,0.0504,0.0501,0.0498,0.0496,0,0.0758,0.0785,0.092,0.1082,0.1225,0.1376,0.1538,0.1614,0.1722,0.1792,0.1806,0.1753,0.1493,0.1197,0.0812,0.0613,0.0584,0.046,0.0604,0.0614,0.0507,0.0466,0.047,0.0474,0.0476,0.0478,0.0479,0.048,0.0893,0.0988,0.1099,0.1245,0.1388,0.1489,0.1571,0.1688,0.1774,0.1817,0.1796,0.1688,0.146,0.0933,0.0623,0.0337,0.0386,0.029,0.0304,0.0319,0.0333,0.0226,0.0133,0.0133,0.0133,0.0133,0.0134,0,0.1032,0.1098,0.1253,0.137,0.1457,0.1517,0.1664,0.1689,0.1709,0.1777,0.1737,0.1435,0.1135,0.0865,0.0413,0.0145,0.0176,0.0061,0.0184,0.0206,0.0225,0.0242,0.0013,0.0012,0.0011,0.001,0,0,0.1113,0.1226,0.1245,0.135,0.1419,0.1485,0.1521,0.1574,0.1631,0.1593,0.1545,0.1518,0.1201,0.0861,0.0522,0.0263,0.0292,0.0201,0.0321,0.0525,0.0548,0.037,0.0419,0,0,0,0,0]}],[{"header":{"parameterUnit":"m.s-1","parameterCategory":2,"la1":30.2991,"la2":30.254,"lo1":-89.0895,"lo2":-89.0444,"dy":0.0017,"dx":0.0017,"nx":28,"ny":28,"refTime":"2023-08-09T09:00:00:Z","depth":"4","parameterNumber":2,"parameterNumberName":"U-component_of_CURRENTS"},"data":[0,0,0,0,0,0,0,0,0,0,0,0,0,0,0,0,0,0,0,0,0,0,0,0,0,0,0,0,0,0,0,0,0,0,0,0,0,0,0,0,0,0,0,0,0,0,0,0,0,0,0,0,0,0,0,0,0,0,0.0508,0.0508,0,0.0601,0.0603,0.0605,0.0694,0.0694,0.0694,0.0694,0.0872,0.0876,0.0881,0,0,0,0,0,0,0,0,0,0,0,0,0,0.0369,0.0373,0.0508,0.0508,0.0508,0.06,0.0603,0.0605,0.0694,0.0694,0.0694,0.0694,0.087,0.0876,0.0881,0,0,0,0,0,0,0,0,0,0,0,0,0,0.0453,0.0374,0.0508,0.0556,0.056,0.06,0.0603,0.0606,0.0694,0.0694,0.0694,0.0694,0.0868,0.0875,0.0882,0.092,0,0,0.0903,0.0906,0,0,0,0,0,0,0,0,0.0448,0.0459,0.0549,0.0552,0.0557,0.0626,0.0618,0.0711,0.0694,0.0655,0.0694,0.0695,0.079,0.0804,0.0835,0.0928,0.0936,0.0903,0.0908,0.0911,0.0913,0,0,0,0,0,0,0,0.0442,0.0455,0.0556,0.0548,0.0554,0.0558,0.0572,0.0637,0.073,0.0658,0.0662,0.0655,0.0795,0.0828,0.084,0.0938,0.0903,0.0909,0.0914,0.0916,0.1343,0.135,0,0,0,0,0,0,0.0412,0.0451,0.0553,0.0557,0.049,0.056,0.0576,0.0613,0.0728,0.0741,0.0655,0.0658,0.0816,0.0831,0.0846,0.1155,0.0911,0.0917,0.0921,0.1336,0.1345,0.1352,0,0,0,0,0,0,0.0409,0.0422,0.0549,0.0494,0.0509,0.0561,0.0603,0.0614,0.0711,0.0722,0.074,0.0744,0.0817,0.0837,0.1037,0.1152,0.092,0.0926,0.1327,0.1339,0.1348,0.1607,0,0,0,0,0,0,0.0406,0.0422,0.0443,0.0494,0.0511,0.0595,0.0602,0.0616,0.0697,0.0705,0.0804,0.0817,0.0819,0.1028,0.1044,0.1157,0.0932,0.1318,0.1332,0.1345,0.1589,0.1625,0.1656,0,0,0,0,0,0.0401,0.0425,0.0445,0.0456,0.0539,0.0595,0.0607,0.0649,0.0701,0.0743,0.0888,0.0817,0.1122,0.1042,0.1058,0.1175,0.1312,0.1328,0.1344,0.1574,0.1618,0.1655,0,0,0,0,0,0,0.0363,0.0436,0.046,0.0502,0.0552,0.0606,0.0644,0.0695,0.084,0.0894,0.093,0.0956,0.1167,0.1149,0.1058,0.1341,0.1197,0.1217,0.1366,0.1407,0.1439,0.1385,0.0937,0,0,0,0,0,0.0364,0.0423,0.0473,0.0514,0.0548,0.0621,0.0655,0.0709,0.0822,0.0887,0.098,0.11,0.1235,0.1307,0.1395,0.156,0.1446,0.1642,0.1675,0.1703,0.1676,0.1638,0.1662,0.1406,0.1405,0.1405,0,0,0.0361,0.0405,0.0439,0.0512,0.0569,0.0638,0.065,0.0743,0.0848,0.0886,0.1107,0.1224,0.131,0.1512,0.1599,0.152,0.1726,0.1724,0.1747,0.1703,0.1657,0.168,0.1701,0.1417,0.1415,0.1413,0,0,0.0375,0.0436,0.0489,0.0551,0.064,0.0688,0.0733,0.086,0.0966,0.1196,0.1264,0.1463,0.166,0.1742,0.181,0.2075,0.1908,0.2117,0.2242,0.2209,0.2226,0.2241,0.2142,0.2145,0.2129,0.2129,0.213,0,0.0372,0.0452,0.0507,0.0579,0.0642,0.0726,0.0813,0.0925,0.1119,0.1246,0.1302,0.1674,0.1762,0.1979,0.2112,0.2144,0.2069,0.2083,0.2243,0.2255,0.2265,0.2159,0.2159,0.2144,0.2142,0.2141,0.2139,0,0.0426,0.0508,0.0555,0.0683,0.0749,0.0852,0.0983,0.1132,0.1308,0.1439,0.1747,0.1913,0.2113,0.2206,0.2272,0.2423,0.2329,0.2287,0.2119,0.2304,0.2184,0.2179,0.2164,0.2159,0.2155,0.2151,0,0,0.0423,0.0565,0.06,0.0677,0.0837,0.0906,0.1101,0.1298,0.1449,0.1713,0.1907,0.2252,0.235,0.243,0.2517,0.254,0.2606,0.248,0.2471,0.2339,0.2485,0.2387,0.2369,0.2591,0.2592,0.2593,0.2374,0,0.0475,0.0623,0.0679,0.0843,0.0943,0.1075,0.1235,0.1437,0.1637,0.184,0.2073,0.2301,0.2423,0.2556,0.2618,0.2614,0.2604,0.2664,0.2359,0.2348,0.2204,0.2366,0.2595,0.2369,0.2368,0.2366,0.2366,0,0.0533,0.0637,0.0808,0.097,0.1026,0.1135,0.1399,0.1542,0.1815,0.1987,0.2235,0.2377,0.2579,0.2593,0.2649,0.2687,0.2614,0.2567,0.2556,0.2353,0.2241,0.2146,0.2353,0.2354,0.2355,0.2356,0.2357,0,0.0528,0.0724,0.0873,0.0946,0.1144,0.1272,0.1381,0.1641,0.1817,0.2054,0.2177,0.2416,0.251,0.2531,0.2585,0.2602,0.2514,0.2488,0.2297,0.2284,0.2308,0.2294,0.2421,0.2421,0.2422,0.2422,0.2423,0,0.0566,0.0682,0.0911,0.0978,0.1242,0.1315,0.1564,0.1716,0.1913,0.2079,0.2246,0.2369,0.2497,0.2519,0.2532,0.2429,0.2473,0.2317,0.2241,0.2429,0.2432,0.2302,0.2291,0.2414,0.2416,0.2417,0.2419,0,0.054,0.0684,0.083,0.1067,0.1247,0.1396,0.1709,0.1783,0.1974,0.2147,0.2227,0.235,0.2359,0.2417,0.2371,0.2311,0.2243,0.2158,0.2331,0.2266,0.2021,0.2028,0.1898,0.1893,0.1889,0.1885,0.1883,0,0.0532,0.0627,0.0926,0.1054,0.1188,0.1482,0.1646,0.1886,0.1952,0.2142,0.2158,0.2223,0.2299,0.2126,0.2191,0.2116,0.2096,0.1979,0.206,0.2038,0.1977,0.199,0.2001,0.1876,0.1875,0.1874,0.1873,0,0.0559,0.0654,0.0804,0.1057,0.1256,0.1478,0.1706,0.1796,0.1962,0.2117,0.2117,0.2123,0.2046,0.2046,0.1971,0.1944,0.2049,0.1936,0.1944,0.2018,0.201,0.1956,0.1972,0.1859,0.1861,0.1862,0.1863,0,0.0635,0.0707,0.0907,0.1114,0.1306,0.1412,0.154,0.1635,0.1817,0.198,0.1978,0.1989,0.2055,0.1948,0.1932,0.1874,0.1835,0.1747,0.1764,0.1779,0.1855,0.1834,0.1563,0,0,0,0,0,0.0762,0.0857,0.096,0.1164,0.122,0.1367,0.1567,0.162,0.182,0.177,0.191,0.1876,0.1817,0.1826,0.1736,0.1836,0.1819,0.1717,0.1723,0.178,0.1796,0.1904,0,0,0,0,0,0,0.0849,0.1051,0.1017,0.1175,0.1198,0.1341,0.1408,0.1477,0.1518,0.1668,0.1655,0.1759,0.1733,0.1862,0.1704,0.1703,0.1661,0.176,0.1754,0.177,0.1785,0.1799,0.1915,0,0,0,0,0]},{"header":{"parameterUnit":"m.s-1","parameterCategory":2,"la1":30.2991,"la2":30.254,"lo1":-89.0895,"lo2":-89.0444,"dy":0.0017,"dx":0.0017,"nx":28,"ny":28,"refTime":"2023-08-09T09:00:00:Z","depth":"4","parameterNumber":3,"parameterNumberName":"V-component_of_CURRENTS"},"data":[0,0,0,0,0,0,0,0,0,0,0,0,0,0,0,0,0,0,0,0,0,0,0,0,0,0,0,0,0,0,0,0,0,0,0,0,0,0,0,0,0,0,0,0,0,0,0,0,0,0,0,0,0,0,0,0,0,0,0.0306,0.0305,0,0.0328,0.0329,0.033,0.0356,0.0355,0.0354,0.0354,0.0103,0.0098,0.0092,0,0,0,0,0,0,0,0,0,0,0,0,0,0.0425,0.0423,0.0306,0.0305,0.0304,0.0328,0.0329,0.0331,0.0356,0.0355,0.0354,0.0353,0.0105,0.0098,0.0091,0,0,0,0,0,0,0,0,0,0,0,0,0,0.0414,0.0422,0.0306,0.0311,0.031,0.0327,0.0329,0.0331,0.0356,0.0355,0.0354,0.0353,0.0108,0.0099,0.009,0.0057,0,0,0.0063,0.0059,0,0,0,0,0,0,0,0,0.0415,0.0411,0.0311,0.031,0.031,0.0327,0.0279,0.0222,0.0356,0.0352,0.0354,0.0352,0.0146,0.0134,0.0162,0.0045,0.0035,0.0062,0.0057,0.0053,0.005,0,0,0,0,0,0,0,0.0415,0.0411,0.0327,0.031,0.0309,0.0358,0.0356,0.0271,0.0259,0.0352,0.0351,0.0334,0.0145,0.0171,0.0155,0.0031,0.0062,0.0054,0.0049,0.0045,-0.019,-0.0191,0,0,0,0,0,0,0.0381,0.0411,0.0326,0.0326,0.0347,0.0356,0.0353,0.0333,0.0266,0.0253,0.0335,0.0335,0.0187,0.0165,0.0145,0.0113,0.0053,0.0044,0.0039,-0.0189,-0.019,-0.0191,0,0,0,0,0,0,0.0384,0.0374,0.0325,0.036,0.0356,0.0352,0.0331,0.0333,0.0386,0.0254,0.0238,0.0386,0.0185,0.0158,0.0086,0.0102,0.004,0.0032,-0.0188,-0.019,-0.0191,0.0038,0,0,0,0,0,0,0.0387,0.0375,0.0372,0.0357,0.0352,0.0332,0.0331,0.0334,0.0369,0.0371,0.029,0.0266,0.0182,0.0101,0.0077,0.0088,0.0025,-0.0187,-0.0189,-0.019,0.0031,0.0044,0.0055,0,0,0,0,0,0.0392,0.0392,0.0372,0.0362,0.034,0.0331,0.0336,0.0338,0.0373,0.0389,0.0343,0.027,0.0072,0.0094,0.0067,0.0075,-0.0186,-0.0188,-0.019,0.0026,0.0042,0.0055,0,0,0,0,0,0,0.0442,0.0392,0.0371,0.0354,0.0335,0.033,0.0352,0.0369,0.0362,0.0376,0.0277,0.0247,0.0181,0.0089,0.0116,-0.0007,-0.0077,-0.0085,0.0096,0.0109,0.0121,0.0136,0.0018,0,0,0,0,0,0.0445,0.0435,0.0388,0.0377,0.0372,0.0378,0.0388,0.0396,0.0374,0.0379,0.0315,0.0233,0.015,0.0104,0.0006,-0.0042,-0.0149,-0.0068,-0.0056,-0.0044,-0.0057,-0.0244,-0.0249,-0.0198,-0.0198,-0.0198,0,0,0.0464,0.0431,0.0428,0.0388,0.0388,0.0371,0.0387,0.0414,0.0404,0.034,0.0323,0.0274,0.0143,0.0086,0.0046,0.0016,-0.0094,-0.0047,-0.0035,-0.0055,-0.0247,-0.0252,-0.0256,-0.0199,-0.0199,-0.0199,0,0,0.0486,0.0466,0.0463,0.0456,0.0443,0.0415,0.0428,0.0434,0.0444,0.044,0.037,0.0329,0.0235,0.0131,0.0071,0.0078,-0.0027,0.0063,0.0146,-0.0032,-0.0037,-0.0044,-0.0077,-0.0088,0.0074,0.0075,0.0075,0,0.0501,0.0495,0.0464,0.0463,0.0459,0.0432,0.0439,0.0427,0.041,0.041,0.0445,0.0323,0.0241,0.0125,0.0167,0.0106,0.0045,0.0124,-0.0012,-0.0021,-0.0032,-0.0066,-0.0082,0.0085,0.0084,0.0083,0.0082,0,0.0514,0.0528,0.0538,0.0496,0.0475,0.05,0.0443,0.0446,0.0478,0.0465,0.0428,0.0356,0.0295,0.0264,0.025,0.0139,0.0142,0.0031,-0.003,-0.0022,-0.0059,-0.0079,0.0101,0.0097,0.0094,0.0091,0,0,0.0524,0.054,0.056,0.0565,0.0522,0.0509,0.0471,0.0429,0.0426,0.0434,0.0425,0.0365,0.0396,0.0326,0.0278,0.0155,0.0112,0.0123,0.0108,0.0127,-0.0159,-0.005,-0.0062,-0.0005,-0.001,-0.0014,-0.0113,0,0.0556,0.0594,0.057,0.0585,0.0596,0.0555,0.0528,0.0486,0.0458,0.0429,0.0377,0.036,0.0388,0.0428,0.0311,0.0106,0.0052,0.0157,-0.0205,-0.0214,-0.0093,-0.0088,-0.0029,-0.0128,-0.0133,-0.0137,-0.014,0,0.0586,0.0611,0.0673,0.0669,0.0671,0.067,0.0623,0.058,0.0494,0.0512,0.0479,0.0447,0.0339,0.0358,0.0067,0.0148,0.0065,-0.0082,-0.0094,-0.0103,-0.0148,-0.0177,-0.0178,-0.0175,-0.0172,-0.017,-0.0167,0,0.0614,0.0674,0.0739,0.0751,0.0735,0.0769,0.0729,0.0651,0.0634,0.056,0.0571,0.043,0.0375,0.0186,0.0058,0.0047,-0.0275,-0.0375,-0.0348,-0.0337,-0.0503,-0.0498,-0.0556,-0.0556,-0.0555,-0.0555,-0.0555,0,0.0643,0.0698,0.0809,0.0821,0.0953,0.0865,0.0896,0.0868,0.078,0.0736,0.0653,0.0606,0.0325,0.0162,0.0032,-0.0171,-0.0283,-0.0323,-0.0385,-0.0388,-0.037,-0.051,-0.0504,-0.0559,-0.0558,-0.0557,-0.0557,0,0.0662,0.074,0.0798,0.0869,0.0975,0.1032,0.1065,0.0991,0.096,0.0882,0.0895,0.0695,0.0466,0.0251,-0.0104,-0.0202,-0.0418,-0.0426,-0.0281,-0.0336,-0.0347,-0.0328,-0.05,-0.0497,-0.0495,-0.0494,-0.0492,0,0.0667,0.0717,0.0879,0.0953,0.1023,0.1136,0.1171,0.1155,0.106,0.0944,0.0883,0.0708,0.0578,0.0183,-0.0062,-0.0313,-0.033,-0.0397,-0.0477,-0.0313,-0.0357,-0.0341,-0.0325,-0.0489,-0.0489,-0.0488,-0.0487,0,0.0655,0.0731,0.079,0.0958,0.1065,0.1155,0.12,0.1208,0.1099,0.1081,0.0921,0.0764,0.0487,0.0187,0.0049,-0.0142,-0.0377,-0.0379,-0.0388,-0.0464,-0.0302,-0.0344,-0.0331,-0.0481,-0.0482,-0.0482,-0.0483,0,0.0678,0.071,0.0793,0.096,0.106,0.1115,0.1161,0.1095,0.1102,0.0995,0.0949,0.0709,0.0552,0.0283,0.0137,-0.0023,-0.0124,-0.0199,-0.022,-0.023,-0.0119,0.0128,0.0029,0,0,0,0,0,0.0694,0.0707,0.0768,0.0905,0.0941,0.1043,0.1124,0.1106,0.111,0.1009,0.1002,0.0798,0.0519,0.0371,0.0219,0.012,-0.0169,-0.0064,-0.0269,-0.0442,-0.045,-0.0357,0,0,0,0,0,0,0.0666,0.0749,0.0761,0.0847,0.0877,0.0945,0.0993,0.0993,0.0964,0.0949,0.0803,0.0761,0.0484,0.0603,0.0209,0.0156,0.0008,-0.0188,-0.0191,-0.0438,-0.0445,-0.0451,-0.0359,0,0,0,0,0]}]]